[[{"header":{"parameterUnit":"m.s-1","parameterCategory":1,"la1":30.2991,"la2":30.254,"lo1":-89.0895,"lo2":-89.0444,"dy":0.0017,"dx":0.0017,"nx":28,"ny":28,"refTime":"2023-10-03T09:00:00:Z","depth":0,"parameterNumber":2,"parameterNumberName":"U-component_of_WINDS"},"data":[0,0,0,0,0,0,0,0,0,0,0,0,0,0,0,0,0,0,0,0,0,0,0,0,0,0,0,0,0,0,0,0,0,0,0,0,0,0,0,0,0,0,0,0,0,0,0,0,0,0,0,0,0,0,0,0,0,0,-3.8671,-3.8671,0,-3.8655,-3.8655,-3.8655,-3.8507,-3.8503,-3.8499,-3.8496,-3.848,-3.8483,-3.8486,0,0,0,0,0,0,0,0,0,0,0,0,0,-3.8572,-3.8574,-3.8671,-3.8671,-3.867,-3.8655,-3.8655,-3.8655,-3.8507,-3.8503,-3.8498,-3.8494,-3.8479,-3.8483,-3.8486,0,0,0,0,0,0,0,0,0,0,0,0,0,-3.8591,-3.8575,-3.8671,-3.8595,-3.8588,-3.8656,-3.8655,-3.8655,-3.8508,-3.8503,-3.8497,-3.8492,-3.8478,-3.8482,-3.8487,-3.8626,0,0,-3.8501,-3.8503,0,0,0,0,0,0,0,0,-3.859,-3.8595,-3.8606,-3.86,-3.8593,-3.8577,-3.8614,-3.8645,-3.851,-3.8539,-3.8496,-3.8489,-3.8517,-3.8518,-3.8527,-3.8625,-3.8624,-3.8501,-3.8504,-3.8506,-3.8507,0,0,0,0,0,0,0,-3.8589,-3.8595,-3.8665,-3.8607,-3.8598,-3.8561,-3.8558,-3.8619,-3.8559,-3.8536,-3.8525,-3.8525,-3.8512,-3.8523,-3.8526,-3.8624,-3.8501,-3.8505,-3.8508,-3.8509,-3.8834,-3.884,0,0,0,0,0,0,-3.8599,-3.8595,-3.8665,-3.8664,-3.8578,-3.8568,-3.8564,-3.8588,-3.8558,-3.8548,-3.853,-3.8518,-3.8518,-3.8521,-3.8525,-3.8683,-3.8506,-3.851,-3.8512,-3.8828,-3.8835,-3.8842,0,0,0,0,0,0,-3.8597,-3.8606,-3.8666,-3.8627,-3.8631,-3.8575,-3.8603,-3.8591,-3.8601,-3.8554,-3.8542,-3.8552,-3.8514,-3.8518,-3.8601,-3.8681,-3.8512,-3.8516,-3.8821,-3.883,-3.8838,-3.9004,0,0,0,0,0,0,-3.8595,-3.8607,-3.8659,-3.8629,-3.8634,-3.8743,-3.8608,-3.8594,-3.861,-3.8594,-3.8571,-3.8562,-3.851,-3.8595,-3.8606,-3.8684,-3.852,-3.8814,-3.8825,-3.8836,-3.8991,-3.9018,-3.904,0,0,0,0,0,-3.8592,-3.8706,-3.8662,-3.8671,-3.8698,-3.8748,-3.8751,-3.8688,-3.8617,-3.8668,-3.8638,-3.8563,-3.8672,-3.8605,-3.8616,-3.8697,-3.8808,-3.8822,-3.8835,-3.898,-3.9012,-3.904,0,0,0,0,0,0,-3.8746,-3.8701,-3.8651,-3.876,-3.8759,-3.8723,-3.8786,-3.8724,-3.8744,-3.8729,-3.865,-3.8646,-3.8741,-3.8727,-3.8654,-3.8829,-3.8727,-3.8743,-3.8834,-3.8864,-3.8888,-3.8888,-3.8523,0,0,0,0,0,-3.8793,-3.8838,-3.8796,-3.8895,-3.8897,-3.8843,-3.8862,-3.8814,-3.881,-3.8809,-3.8784,-3.8783,-3.8816,-3.884,-3.8868,-3.899,-3.8982,-3.9051,-3.9075,-3.9095,-3.9109,-3.9171,-3.9201,-3.8885,-3.8885,-3.8885,0,0,-3.889,-3.8871,-3.8904,-3.8926,-3.8919,-3.8967,-3.8843,-3.8899,-3.8933,-3.8817,-3.8893,-3.8876,-3.8869,-3.8972,-3.9016,-3.8964,-3.9195,-3.9112,-3.9129,-3.9132,-3.9188,-3.9218,-3.9245,-3.8894,-3.8893,-3.8891,0,0,-3.909,-3.9081,-3.9162,-3.9159,-3.9151,-3.9114,-3.9134,-3.9107,-3.9091,-3.9167,-3.9081,-3.9121,-3.9181,-3.9179,-3.9186,-3.9388,-3.9319,-3.9399,-3.9526,-3.9587,-3.9612,-3.9633,-3.9703,-3.9729,-3.9414,-3.9414,-3.9415,0,-3.9211,-3.9279,-3.9211,-3.9272,-3.9284,-3.9183,-3.9264,-3.9264,-3.9266,-3.9277,-3.9218,-3.9291,-3.928,-3.938,-3.9429,-3.9439,-3.9458,-3.94,-3.9614,-3.9635,-3.9654,-3.972,-3.9746,-3.9424,-3.9423,-3.9422,-3.9421,0,-3.9427,-3.9476,-3.9542,-3.9547,-3.9566,-3.9638,-3.9581,-3.9609,-3.956,-3.953,-3.9608,-3.9591,-3.9614,-3.9635,-3.9588,-3.9729,-3.9696,-3.9628,-3.9523,-3.9695,-3.9755,-3.978,-3.9438,-3.9434,-3.9431,-3.9429,0,0,-3.9721,-3.9688,-3.9713,-3.9714,-3.9699,-3.9735,-3.9802,-3.9824,-3.9849,-3.9855,-3.9908,-3.9962,-3.9898,-3.9907,-3.9859,-3.9913,-4.0072,-3.9837,-3.9836,-3.9879,-4.0224,-4.0274,-4.0304,-4.0028,-4.0032,-4.0036,-4.0224,0,-3.9911,-4.0022,-3.9964,-4.0083,-4.0126,-4.0032,-4.009,-4.0087,-4.0061,-4.0094,-4.0065,-4.0103,-4.0017,-4.0021,-4.0071,-4.0042,-4.0139,-4.0028,-4.0075,-4.0077,-4.0076,-4.0336,-4.0388,-4.0566,-4.0247,-4.0251,-4.0254,0,-4.0147,-4.0162,-4.0286,-4.0262,-4.0278,-4.0331,-4.0347,-4.0381,-4.0376,-4.0353,-4.0363,-4.0303,-4.0366,-4.0265,-4.0351,-4.0277,-4.0293,-4.0282,-4.0287,-4.0286,-4.0174,-4.034,-4.0622,-4.0648,-4.0291,-4.0288,-4.0285,0,-4.0346,-4.0398,-4.0478,-4.0482,-4.0457,-4.0496,-4.0488,-4.0478,-4.0495,-4.0509,-4.0519,-4.0542,-4.0553,-4.0572,-4.0519,-4.045,-4.0611,-4.0506,-4.0593,-4.0594,-4.0628,-4.0626,-4.0914,-4.0644,-4.0644,-4.0643,-4.0643,0,-4.0562,-4.064,-4.0567,-4.0616,-4.0701,-4.0634,-4.072,-4.0702,-4.0694,-4.0737,-4.0658,-4.0701,-4.0629,-4.0665,-4.0625,-4.0701,-4.0708,-4.069,-4.0677,-4.0695,-4.0697,-4.0702,-4.0687,-4.065,-4.0649,-4.0648,-4.0646,0,-4.0796,-4.0751,-4.0831,-4.0802,-4.0796,-4.086,-4.0835,-4.0879,-4.0848,-4.0904,-4.0914,-4.0866,-4.0903,-4.0853,-4.0887,-4.0859,-4.0963,-4.0934,-4.0964,-4.0955,-4.1043,-4.1034,-4.1342,-4.1378,-4.1089,-4.1091,-4.1094,0,-4.0936,-4.0994,-4.0971,-4.0995,-4.0991,-4.103,-4.1047,-4.0985,-4.1006,-4.1006,-4.105,-4.1081,-4.1102,-4.1167,-4.1135,-4.116,-4.1129,-4.1235,-4.1132,-4.1148,-4.1127,-4.1123,-4.1128,-4.1255,-4.1259,-4.1261,-4.1264,0,-4.1187,-4.1162,-4.119,-4.1211,-4.1233,-4.1247,-4.1254,-4.1278,-4.1213,-4.1241,-4.1278,-4.1295,-4.1329,-4.1361,-4.1378,-4.1369,-4.1305,-4.1297,-4.1318,-4.1335,-4.1349,-4.134,-4.1019,-4.1289,-4.1287,-4.1285,-4.1284,-4.1282,-4.1376,-4.1423,-4.1414,-4.1448,-4.1447,-4.1456,-4.1495,-4.147,-4.1501,-4.1523,-4.1485,-4.1533,-4.1527,-4.1543,-4.1542,-4.1578,-4.1531,-4.1562,-4.1569,-4.1577,-4.1589,-4.1347,-4.1581,-4.158,-4.1579,-4.1579,-4.1578,0,-4.162,-4.1611,-4.1643,-4.1655,-4.1682,-4.1622,-4.1628,-4.1654,-4.1696,-4.1696,-4.1719,-4.1763,-4.1794,-4.1765,-4.179,-4.1825,-4.1796,-4.1833,-4.1828,-4.1827,-4.1631,-4.1609,-4.1856,-4.1856,-4.1856,-4.1855,-4.1855,-4.1855,-4.175,-4.1826,-4.18,-4.1875,-4.1864,-4.191,-4.1918,-4.1926,-4.1925,-4.1977,-4.2002,-4.1984,-4.1973,-4.1996,-4.2022,-4.2013,-4.2024,-4.2071,-4.2052,-4.1868,-4.1841,-4.1815,-4.1793,-4.2075,-4.2075,-4.2244,-4.2246,-4.2247]},{"header":{"parameterUnit":"m.s-1","parameterCategory":1,"la1":30.2991,"la2":30.254,"lo1":-89.0895,"lo2":-89.0444,"dy":0.0017,"dx":0.0017,"nx":28,"ny":28,"refTime":"2023-10-03T09:00:00:Z","depth":0,"parameterNumber":3,"parameterNumberName":"V-component_of_WINDS"},"data":[0,0,0,0,0,0,0,0,0,0,0,0,0,0,0,0,0,0,0,0,0,0,0,0,0,0,0,0,0,0,0,0,0,0,0,0,0,0,0,0,0,0,0,0,0,0,0,0,0,0,0,0,0,0,0,0,0,0,1.5692,1.569,0,1.5504,1.5502,1.55,1.529,1.5287,1.5284,1.5281,1.5087,1.5085,1.5082,0,0,0,0,0,0,0,0,0,0,0,0,0,1.587,1.5867,1.5692,1.569,1.5688,1.5505,1.5502,1.55,1.5291,1.5287,1.5283,1.528,1.5088,1.5085,1.5082,0,0,0,0,0,0,0,0,0,0,0,0,0,1.5748,1.5867,1.5693,1.5562,1.5548,1.5505,1.5502,1.5499,1.5292,1.5287,1.5283,1.5278,1.5089,1.5085,1.5082,1.5152,0,0,1.5071,1.507,0,0,0,0,0,0,0,0,1.5756,1.5742,1.5583,1.5571,1.5555,1.5416,1.5493,1.5383,1.5293,1.5389,1.5281,1.5276,1.52,1.5187,1.5162,1.5143,1.5135,1.5071,1.5069,1.5067,1.5066,0,0,0,0,0,0,0,1.5764,1.5749,1.5618,1.5581,1.5564,1.5512,1.549,1.5471,1.5323,1.538,1.5365,1.5345,1.5191,1.5166,1.5156,1.5132,1.5071,1.5068,1.5066,1.5064,1.5163,1.5167,0,0,0,0,0,0,1.5793,1.5757,1.5624,1.5612,1.5646,1.5512,1.5487,1.5465,1.5322,1.5296,1.535,1.5336,1.5174,1.516,1.5148,1.5221,1.5067,1.5064,1.5062,1.5158,1.5164,1.5169,0,0,0,0,0,0,1.5797,1.5783,1.5631,1.568,1.5657,1.5514,1.5491,1.5464,1.5438,1.5299,1.5271,1.5351,1.517,1.5153,1.5153,1.5212,1.5062,1.5059,1.5153,1.516,1.5166,1.537,0,0,0,0,0,0,1.5803,1.5786,1.5811,1.5683,1.5656,1.5641,1.5495,1.5464,1.5433,1.5414,1.5293,1.5268,1.5165,1.516,1.515,1.5204,1.5056,1.5147,1.5156,1.5164,1.5357,1.5383,1.5405,0,0,0,0,0,1.581,1.5875,1.5813,1.5798,1.5684,1.5644,1.5629,1.5509,1.5439,1.5463,1.5374,1.5272,1.5208,1.5161,1.5148,1.5203,1.5142,1.5153,1.5163,1.5346,1.5378,1.5404,0,0,0,0,0,0,1.6012,1.5856,1.5786,1.5811,1.5743,1.5609,1.5636,1.5546,1.5496,1.548,1.5333,1.5308,1.5326,1.5264,1.5215,1.5264,1.516,1.5169,1.5304,1.5333,1.5356,1.537,1.5054,0,0,0,0,0,1.6061,1.6042,1.5905,1.5941,1.591,1.578,1.5758,1.5672,1.5595,1.5565,1.5475,1.5404,1.5368,1.5347,1.5305,1.5348,1.5318,1.5379,1.5403,1.5423,1.5432,1.5451,1.5476,1.5204,1.5204,1.5203,0,0,1.6158,1.607,1.6067,1.5979,1.5916,1.59,1.5757,1.5745,1.5731,1.5562,1.5557,1.549,1.5401,1.5423,1.5428,1.5372,1.5502,1.5437,1.5454,1.5451,1.5465,1.5491,1.5514,1.5211,1.521,1.5208,0,0,1.6328,1.626,1.6282,1.6223,1.613,1.6043,1.605,1.593,1.5879,1.5872,1.5746,1.5727,1.5667,1.5609,1.5572,1.5724,1.5629,1.5715,1.5839,1.5859,1.5881,1.5899,1.5954,1.5975,1.5724,1.5725,1.5725,0,1.6461,1.6432,1.6305,1.6302,1.6267,1.6116,1.6138,1.6086,1.5984,1.5964,1.5903,1.5826,1.5755,1.5762,1.58,1.5775,1.5777,1.5727,1.5888,1.5905,1.592,1.5971,1.5992,1.5736,1.5734,1.5733,1.5732,0,1.6601,1.6583,1.6612,1.6519,1.6488,1.6497,1.6372,1.6356,1.6274,1.6194,1.6189,1.61,1.6038,1.6033,1.5952,1.603,1.5998,1.5915,1.5807,1.596,1.6004,1.6023,1.5752,1.5748,1.5744,1.5741,0,0,1.689,1.673,1.6742,1.6699,1.6587,1.657,1.6574,1.6515,1.6504,1.644,1.6439,1.6393,1.6316,1.6274,1.6186,1.6204,1.6331,1.6118,1.6113,1.6161,1.6411,1.6474,1.6499,1.6267,1.6271,1.6273,1.6419,0,1.704,1.7036,1.6924,1.6952,1.6934,1.6792,1.6794,1.6726,1.6653,1.6626,1.6543,1.6514,1.6414,1.6389,1.64,1.6313,1.6379,1.6301,1.6265,1.6265,1.6291,1.6522,1.6587,1.6729,1.6435,1.6438,1.644,0,1.7213,1.7161,1.7189,1.7077,1.7066,1.707,1.7008,1.6985,1.6905,1.685,1.6806,1.6706,1.6701,1.6601,1.6593,1.6543,1.6522,1.6477,1.648,1.6471,1.6362,1.6519,1.6771,1.6793,1.6466,1.6464,1.6462,0,1.7422,1.7359,1.7367,1.7335,1.7205,1.7212,1.7158,1.7074,1.7047,1.6992,1.6973,1.692,1.689,1.6851,1.6739,1.6677,1.6745,1.6635,1.6699,1.6702,1.6718,1.6719,1.6971,1.6706,1.6706,1.6706,1.6705,0,1.76,1.7623,1.7459,1.7465,1.7486,1.7357,1.7381,1.7313,1.724,1.723,1.7103,1.7096,1.695,1.6926,1.6839,1.6847,1.6834,1.6789,1.6766,1.68,1.6806,1.6784,1.6771,1.6711,1.671,1.6709,1.6708,0,1.7836,1.7728,1.7728,1.7606,1.7576,1.7598,1.7493,1.7493,1.7413,1.7401,1.7391,1.7264,1.723,1.7116,1.7053,1.6995,1.7029,1.6984,1.7057,1.7041,1.7112,1.7107,1.7358,1.7384,1.7105,1.7108,1.711,0,1.7956,1.7971,1.7852,1.7837,1.7789,1.7766,1.7737,1.7612,1.7588,1.75,1.7511,1.7467,1.7425,1.7378,1.728,1.7232,1.7185,1.7276,1.7176,1.7212,1.7186,1.7187,1.7188,1.7298,1.7301,1.7304,1.7307,0,1.8182,1.8129,1.8093,1.8041,1.8012,1.7964,1.7909,1.7903,1.7763,1.7743,1.7707,1.7676,1.7613,1.7571,1.7508,1.7452,1.7357,1.7339,1.7351,1.7386,1.7428,1.7407,1.7115,1.7334,1.7331,1.7329,1.7327,1.7326,1.8363,1.8369,1.8288,1.8254,1.82,1.8152,1.8146,1.8066,1.8035,1.7975,1.7903,1.7877,1.7798,1.7703,1.7655,1.7633,1.758,1.7598,1.7602,1.7609,1.7626,1.7433,1.7621,1.762,1.7619,1.7618,1.7617,0,1.8581,1.8523,1.8493,1.8421,1.8395,1.8309,1.8244,1.8228,1.8207,1.8142,1.8105,1.8066,1.8025,1.7926,1.7877,1.7878,1.7833,1.7869,1.7867,1.7856,1.7675,1.767,1.7907,1.7907,1.7907,1.7906,1.7906,1.7906,1.8692,1.8699,1.8637,1.8617,1.8557,1.8531,1.8502,1.8457,1.8405,1.8368,1.8334,1.827,1.8192,1.8136,1.8096,1.8068,1.8056,1.8106,1.8064,1.7896,1.7869,1.7843,1.7837,1.8105,1.8105,1.8247,1.8248,1.8249]}]]